Powrót do katalogu

STARLINK-5134

AktywnyŁącznośćVLEO
NORAD 53976·PAYLOAD·🇺🇸 United States

Wystrzelony Oct 5, 2022 z Vandenberg Space Force Base

Loading…

Następne Przeloty (najbliższe 24 godziny)

TLE

ŚwieżeSource: CelesTrak SupGP

Epoka: Sep 14, 2026, 13:16 UTC

1 53976C 22125N   26257.55326389 -.00016051  00000+0 -47417-3 0  2572
2 53976  53.1593  65.2367 0001092  92.7754 270.1277 15.34402690    14

Śledź STARLINK-5134 w czasie rzeczywistym z AllMySat

Download on the App Store